Centerton, AR (72719)

7:43 PM CDT on August 28, 2016 (GMT -0500)
| | Change Station

Elev -9999 ft 0.00 °N, 0.00 °E | Updated

Partly Cloudy
Partly Cloudy
77 °F
Feels Like 77 °F
N
1
Wind Variable Wind from ESE
Gusts mph

Today
High -- | Low -- °F
--% Chance of Precip.
Yesterday
High -- | Low -- °F
Precip. -- in
Pressure 30.09 in
Visibility 10.0 miles
Clouds Clear
Dew Point 68 °F
Humidity 75%
Rainfall --
Snow Depth Not available.
6:45 AM 7:50 PM
Waning Crescent, 12% visible
METAR KVBT 290035Z AUTO 12003KT 10SM CLR 28/19 A3009 RMK AO1
Pressure 30.09 in
Visibility 10.0 miles
Clouds Clear
Dew Point 68 °F
Humidity 75%
Rainfall --
Snow Depth Not available.
6:45 AM 7:50 PM
Waning Crescent, 12% visible
METAR KVBT 290035Z AUTO 12003KT 10SM CLR 28/19 A3009 RMK AO1

10-Day Weather Forecast

Almanac

Astronomy

Aug. 28, 2016 Rise Set
Actual Time
Civil Twilight
Nautical Twilight
Astronomical Twilight
Moon
Length of Visible Light
Length of Day
Tomorrow will be .
, % of the Moon is Illuminated

Today's Extremes

State Highs State Lows

Community

WunderPhotos

Upload Photos

1,935,749 photos uploaded!

WunderBlog® & News

Nearby

Air Quality

  Air Quality AQ Index Pollutant
Not available.

Snow Depth

Station Depth Elevation

Earthquake Activity

City Distance Mag. Time & Date
Minimum magnitude displayed is 2.5.

Coastal Water Temperatures

Place Temperature

Stations

Nearby Weather Stations

Station Location Temp. Windchill Dew Point Humidity Wind Precip. Elev Updated Type
                   

Watches & Warnings

There are currently no watches in effect.